Ontario, CA

6:19 AM PDT on August 22, 2017 (GMT -0700)
Ontario International

Weather History for KONT - April, 2014

Change the Weather History Date:

Thursday, April 24, 2014

  Actual Average Record
Temperature  
Mean Temperature 68 °F 64 °F  
Max Temperature 83 °F 75 °F 91 °F (2001)
Min Temperature 52 °F 52 °F 47 °F (2006)
Degree Days  
Heating Degree Days 0 3  
Month to date heating degree days 46 106  
Since 1 July heating degree days 805 1475  
Cooling Degree Days 3 2  
Month to date cooling degree days 77 30  
Year to date cooling degree days 139 48  
Growing Degree Days 18 (Base 50)    
Moisture  
Dew Point 42 °F    
Average Humidity 42    
Maximum Humidity 61    
Minimum Humidity 22    
Precipitation  
Precipitation 0.00 in 0.03 in 0.21 in (2002)
Month to date precipitation 0.28 0.77  
Year to date precipitation 2.95 9.79  
Since 1 July precipitation 3.87  
Snow  
Snow 0.00 in - - ()
Month to date snowfall 0.0  
Year to date snowfall 0.0  
Snow Depth 0.00 in    
Sea Level Pressure  
Sea Level Pressure 29.91 in    
Wind  
Wind Speed 6 mph (West)    
Max Wind Speed 18 mph    
Max Gust Speed 25 mph    
Visibility 10 miles    
Events      
T = Trace of Precipitation, MM = Missing Value Source: NWS Daily Summary

Daily Weather History Graph

Daily Weather History Graph

Search for Another Location

Airport or City:

Trip Planner

Search our weather history database for the weather conditions in past years. The results will help you decide how hot, cold, wet, or windy it might be!

Date:

Astronomy

Apr. 24, 2014 Rise Set
Actual Time 6:08 AM PDT 7:28 PM PDT
Civil Twilight 5:42 AM PDT 7:55 PM PDT
Nautical Twilight 5:11 AM PDT 8:26 PM PDT
Astronomical Twilight 4:38 AM PDT 8:59 PM PDT
Moon 3:08 AM PDT (4/24) 3:02 PM PDT (4/24)
Length of Visible Light 14h 12m
Length of Day
13h 20m
Waning Crescent, 23% of the Moon is Illuminated
Apr 24
Waning Crescent
Apr 28
New
May 6
First Quarter
May 14
Full
May 21
Last Quarter

Hourly Weather History & Observations

Time (PDT) Temp. Dew Point Humidity Pressure Visibility Wind Dir Wind Speed Gust Speed Precip Events Conditions
12:53 AM 57.0 °F 39.0 °F 51% 29.92 in 10.0 mi NNW 3.5 mph - N/A   Partly Cloudy
1:53 AM 57.0 °F 39.9 °F 53% 29.92 in 10.0 mi WNW 6.9 mph - N/A   Partly Cloudy
2:53 AM 57.0 °F 41.0 °F 55% 29.93 in 10.0 mi Calm Calm - N/A   Partly Cloudy
3:53 AM 55.9 °F 41.0 °F 57% 29.91 in 10.0 mi East 4.6 mph - N/A   Clear
4:53 AM 55.9 °F 42.1 °F 60% 29.92 in 10.0 mi Calm Calm - N/A   Clear
5:53 AM 55.0 °F 41.0 °F 59% 29.93 in 10.0 mi Calm Calm - N/A   Partly Cloudy
6:53 AM 55.9 °F 42.1 °F 60% 29.95 in 10.0 mi North 4.6 mph - N/A   Scattered Clouds
7:53 AM 61.0 °F 41.0 °F 48% 29.96 in 10.0 mi Calm Calm - N/A   Partly Cloudy
8:53 AM 64.0 °F 39.9 °F 41% 29.96 in 10.0 mi Calm Calm - N/A   Partly Cloudy
9:53 AM 66.9 °F 37.9 °F 34% 29.96 in 10.0 mi WSW 4.6 mph - N/A   Partly Cloudy
10:53 AM 71.1 °F 39.9 °F 32% 29.96 in 10.0 mi Variable 5.8 mph - N/A   Partly Cloudy
11:53 AM 73.9 °F 44.1 °F 34% 29.95 in 10.0 mi SSW 6.9 mph - N/A   Partly Cloudy
12:53 PM 78.1 °F 39.9 °F 25% 29.92 in 10.0 mi West 8.1 mph - N/A   Partly Cloudy
1:53 PM 81.0 °F 39.0 °F 22% 29.89 in 10.0 mi WSW 11.5 mph - N/A   Partly Cloudy
2:53 PM 82.0 °F 39.0 °F 22% 29.87 in 10.0 mi WSW 12.7 mph - N/A   Clear
3:53 PM 82.0 °F 39.9 °F 22% 29.86 in 10.0 mi WSW 16.1 mph - N/A   Clear
4:53 PM 80.1 °F 44.1 °F 28% 29.85 in 10.0 mi WSW 12.7 mph - N/A   Clear
5:53 PM 75.9 °F 45.0 °F 33% 29.86 in 10.0 mi SW 15.0 mph - N/A   Clear
6:53 PM 71.1 °F 45.0 °F 39% 29.88 in 10.0 mi WSW 16.1 mph - N/A   Clear
7:53 PM 66.9 °F 45.0 °F 45% 29.88 in 10.0 mi WSW 12.7 mph 21.9 mph N/A   Clear
8:53 PM 64.0 °F 46.0 °F 52% 29.90 in 10.0 mi SW 11.5 mph - N/A   Scattered Clouds
9:53 PM 62.1 °F 46.0 °F 56% 29.92 in 10.0 mi West 6.9 mph - N/A   Clear
10:53 PM 62.1 °F 46.0 °F 56% 29.91 in 10.0 mi West 5.8 mph - N/A   Clear
11:53 PM 59.0 °F 45.0 °F 60% 29.92 in 10.0 mi NW 4.6 mph - N/A   Clear